Year,Month,Day,Hour,Minute,Value (Times are PST for temperature in C)
2012,03,22,00,00,1.30
2012,03,22,00,01,1.30
2012,03,22,00,02,1.30
2012,03,22,00,03,1.40
2012,03,22,00,04,1.40
2012,03,22,00,05,1.40
2012,03,22,00,06,1.40
2012,03,22,00,07,1.40
2012,03,22,00,08,1.40
2012,03,22,00,09,1.50
2012,03,22,00,10,1.50
2012,03,22,00,11,1.60
2012,03,22,00,12,1.60
2012,03,22,00,13,1.60
2012,03,22,00,14,1.60
2012,03,22,00,15,1.60
2012,03,22,00,16,1.50
2012,03,22,00,17,1.40
2012,03,22,00,18,1.30
2012,03,22,00,19,1.30
2012,03,22,00,20,1.30
2012,03,22,00,21,1.20
2012,03,22,00,22,1.10
2012,03,22,00,23,1.00
2012,03,22,00,24,0.90
2012,03,22,00,25,0.80
2012,03,22,00,26,0.70
2012,03,22,00,27,0.70
2012,03,22,00,28,0.60
2012,03,22,00,29,0.60
2012,03,22,00,30,0.50
2012,03,22,00,31,0.50
2012,03,22,00,32,0.50
2012,03,22,00,33,0.50
2012,03,22,00,34,0.60
2012,03,22,00,35,0.60
2012,03,22,00,36,0.60
2012,03,22,00,37,0.60
2012,03,22,00,38,0.60
2012,03,22,00,39,0.60
2012,03,22,00,40,0.60
2012,03,22,00,41,0.50
2012,03,22,00,42,0.50
2012,03,22,00,43,0.50
2012,03,22,00,44,0.40
2012,03,22,00,45,0.40
2012,03,22,00,46,0.30
2012,03,22,00,47,0.30
2012,03,22,00,48,0.30
2012,03,22,00,49,0.30
2012,03,22,00,50,0.30
2012,03,22,00,51,0.30
2012,03,22,00,52,0.30
2012,03,22,00,53,0.30
2012,03,22,00,54,0.40
2012,03,22,00,55,0.40
2012,03,22,00,56,0.40
2012,03,22,00,57,0.40
2012,03,22,00,58,0.50
2012,03,22,00,59,0.50
2012,03,22,01,00,0.50
2012,03,22,01,01,0.60
2012,03,22,01,02,0.50
2012,03,22,01,03,0.50
2012,03,22,01,04,0.50
2012,03,22,01,05,0.40
2012,03,22,01,06,0.40
2012,03,22,01,07,0.40
2012,03,22,01,08,0.30
2012,03,22,01,09,0.30
2012,03,22,01,10,0.30
2012,03,22,01,11,0.20
2012,03,22,01,12,0.20
2012,03,22,01,13,0.20
2012,03,22,01,14,0.20
2012,03,22,01,15,0.20
2012,03,22,01,16,0.10
2012,03,22,01,17,0.10
2012,03,22,01,18,0.10
2012,03,22,01,19,0.10
2012,03,22,01,20,0.10
2012,03,22,01,21,0.10
2012,03,22,01,22,0.10
2012,03,22,01,23,0.10
2012,03,22,01,24,0.20
2012,03,22,01,25,0.20
2012,03,22,01,26,0.20
2012,03,22,01,27,0.20
2012,03,22,01,28,0.20
2012,03,22,01,29,0.20
2012,03,22,01,30,0.20
2012,03,22,01,31,0.20
2012,03,22,01,32,0.20
2012,03,22,01,33,0.20
2012,03,22,01,34,0.20
2012,03,22,01,35,0.10
2012,03,22,01,36,0.10
2012,03,22,01,37,0.10
2012,03,22,01,38,0.00
2012,03,22,01,39,0.00
2012,03,22,01,40,-0.10
2012,03,22,01,41,-0.10
2012,03,22,01,42,-0.10
2012,03,22,01,43,-0.10
2012,03,22,01,44,-0.10
2012,03,22,01,45,-0.10
2012,03,22,01,46,-0.10
2012,03,22,01,47,0.00
2012,03,22,01,48,0.10
2012,03,22,01,49,0.10
2012,03,22,01,50,0.20
2012,03,22,01,51,0.20
2012,03,22,01,52,0.30
2012,03,22,01,53,0.30
2012,03,22,01,54,0.30
2012,03,22,01,55,0.30
2012,03,22,01,56,0.40
2012,03,22,01,57,0.30
2012,03,22,01,58,0.30
2012,03,22,01,59,0.30
2012,03,22,02,00,0.30
2012,03,22,02,01,0.30
2012,03,22,02,02,0.30
2012,03,22,02,03,0.30
2012,03,22,02,04,0.30
2012,03,22,02,05,0.30
2012,03,22,02,06,0.30
2012,03,22,02,07,0.30
2012,03,22,02,08,0.30
2012,03,22,02,09,0.30
2012,03,22,02,10,0.30
2012,03,22,07,33,0.00
2012,03,22,07,34,0.10
2012,03,22,07,35,0.20
2012,03,22,07,36,0.40
2012,03,22,07,37,0.50
2012,03,22,07,38,0.70
2012,03,22,07,39,0.80
2012,03,22,07,40,0.90
2012,03,22,07,41,1.00
2012,03,22,07,42,1.00
2012,03,22,07,43,1.00
2012,03,22,07,44,1.00
2012,03,22,07,45,0.90
2012,03,22,07,46,0.80
2012,03,22,07,47,0.60
2012,03,22,07,48,0.40
2012,03,22,07,49,0.30
2012,03,22,07,50,0.20
2012,03,22,07,51,0.10
2012,03,22,07,52,0.10
2012,03,22,07,53,0.00
2012,03,22,07,54,-0.10
2012,03,22,07,55,-0.10
2012,03,22,07,56,-0.10
2012,03,22,07,57,-0.10
2012,03,22,07,58,-0.10
2012,03,22,07,59,-0.10
2012,03,22,08,00,0.00
2012,03,22,08,01,0.00
2012,03,22,08,02,0.10
2012,03,22,08,03,0.10
2012,03,22,08,04,0.10
2012,03,22,08,05,0.10
2012,03,22,08,06,0.10
2012,03,22,08,07,0.20
2012,03,22,08,08,0.20
2012,03,22,08,09,0.30
2012,03,22,08,10,0.30
2012,03,22,08,11,0.40
2012,03,22,08,12,0.40
2012,03,22,08,13,0.50
2012,03,22,08,14,0.50
2012,03,22,08,15,0.60
2012,03,22,08,16,0.60
2012,03,22,08,17,0.70
2012,03,22,08,18,0.70
2012,03,22,08,19,0.80
2012,03,22,08,20,0.80
2012,03,22,08,21,0.90
2012,03,22,08,22,1.00
2012,03,22,08,23,1.10
2012,03,22,08,24,1.20
2012,03,22,08,25,1.30
2012,03,22,08,26,1.40
2012,03,22,08,27,1.60
2012,03,22,08,28,1.70
2012,03,22,08,29,1.80
2012,03,22,08,30,1.90
2012,03,22,08,31,2.00
2012,03,22,08,32,2.00
2012,03,22,08,33,2.10
2012,03,22,08,34,2.10
2012,03,22,08,35,2.20
2012,03,22,08,36,2.20
2012,03,22,08,37,2.30
2012,03,22,08,38,2.30
2012,03,22,08,39,2.30
2012,03,22,08,40,2.30
2012,03,22,08,41,2.40
2012,03,22,08,42,2.40
2012,03,22,08,43,2.40
2012,03,22,08,44,2.40
2012,03,22,08,45,2.50
2012,03,22,08,46,2.40
2012,03,22,08,47,2.40
2012,03,22,08,48,2.40
2012,03,22,08,49,2.40
2012,03,22,08,50,2.40
2012,03,22,08,51,2.40
2012,03,22,08,52,2.40
2012,03,22,08,53,2.30
2012,03,22,08,54,2.30
2012,03,22,08,55,2.30
2012,03,22,08,56,2.30
2012,03,22,08,57,2.30
2012,03,22,08,58,2.30
2012,03,22,08,59,2.30
2012,03,22,09,00,2.30
2012,03,22,09,01,2.30
2012,03,22,09,02,2.30
2012,03,22,09,03,2.30
2012,03,22,09,04,2.20
2012,03,22,09,05,2.20
2012,03,22,09,06,2.20
2012,03,22,09,07,2.20
2012,03,22,09,08,2.30
2012,03,22,09,09,2.30
2012,03,22,09,10,2.30
2012,03,22,09,11,2.30
2012,03,22,09,12,2.30
2012,03,22,09,13,2.30
2012,03,22,09,14,2.30
2012,03,22,09,15,2.30
2012,03,22,09,16,2.30
2012,03,22,09,17,2.30
2012,03,22,09,18,2.30
2012,03,22,09,19,2.20
2012,03,22,09,20,2.30
2012,03,22,09,21,2.30
2012,03,22,09,22,2.30
2012,03,22,09,23,2.30
2012,03,22,09,24,2.30
2012,03,22,09,25,2.30
2012,03,22,09,26,2.30
2012,03,22,09,27,2.30
2012,03,22,09,28,2.30
2012,03,22,09,29,2.30
2012,03,22,09,30,2.30
2012,03,22,09,31,2.30
2012,03,22,09,32,2.30
2012,03,22,09,33,2.30
2012,03,22,09,34,2.30
2012,03,22,09,35,2.20
2012,03,22,09,36,2.20
2012,03,22,09,37,2.20
2012,03,22,09,38,2.30
2012,03,22,09,39,2.30
2012,03,22,09,40,2.30
2012,03,22,09,41,2.40
2012,03,22,09,42,2.40
2012,03,22,09,43,2.50
2012,03,22,09,44,2.50
2012,03,22,09,45,2.60
2012,03,22,09,46,2.60
2012,03,22,09,47,2.70
2012,03,22,09,48,2.70
2012,03,22,09,49,2.80
2012,03,22,09,50,2.80
2012,03,22,09,51,2.80
2012,03,22,09,52,2.80
2012,03,22,09,53,2.90
2012,03,22,09,54,2.90
2012,03,22,09,55,2.90
2012,03,22,09,56,2.90
2012,03,22,09,57,2.90
2012,03,22,09,58,2.90
2012,03,22,09,59,2.90
2012,03,22,10,00,2.80
2012,03,22,10,01,2.80
2012,03,22,10,02,2.80
2012,03,22,10,03,2.70
2012,03,22,10,04,2.70
2012,03,22,10,05,2.70
2012,03,22,10,06,2.70
2012,03,22,10,07,2.70
2012,03,22,10,08,2.70
2012,03,22,10,09,2.70
2012,03,22,10,10,2.80
2012,03,22,10,11,2.80
2012,03,22,10,12,2.70
2012,03,22,10,13,2.70
2012,03,22,10,14,2.70
2012,03,22,10,15,2.80
2012,03,22,10,16,2.80
2012,03,22,10,17,2.80
2012,03,22,10,18,2.90
2012,03,22,10,19,3.00
2012,03,22,10,20,3.10
2012,03,22,10,21,3.10
2012,03,22,10,22,3.10
2012,03,22,10,23,3.10
2012,03,22,10,24,3.20
2012,03,22,10,25,3.30
2012,03,22,10,26,3.30
2012,03,22,10,27,3.30
2012,03,22,10,28,3.30
2012,03,22,10,29,3.30
2012,03,22,10,30,3.40
2012,03,22,10,31,3.50
2012,03,22,10,32,3.60
2012,03,22,10,33,3.60
2012,03,22,10,34,3.60
2012,03,22,10,35,3.50
2012,03,22,10,36,3.50
2012,03,22,10,37,3.40
2012,03,22,10,38,3.50
2012,03,22,10,39,3.60
2012,03,22,10,40,3.60
2012,03,22,10,41,3.70
2012,03,22,10,42,3.70
2012,03,22,10,43,3.70
2012,03,22,10,44,3.80
2012,03,22,10,45,3.80
2012,03,22,10,46,3.80
2012,03,22,10,47,3.90
2012,03,22,10,48,4.00
2012,03,22,10,49,4.00
2012,03,22,10,50,4.10
2012,03,22,10,51,4.10
2012,03,22,10,52,4.00
2012,03,22,10,53,3.90
2012,03,22,10,54,3.90
2012,03,22,10,55,3.90
2012,03,22,10,56,3.90
2012,03,22,10,57,3.90
2012,03,22,10,58,4.00
2012,03,22,10,59,4.10
2012,03,22,11,00,4.10
2012,03,22,11,01,4.20
2012,03,22,11,02,4.20
2012,03,22,11,03,4.20
2012,03,22,11,04,4.10
2012,03,22,11,05,4.00
2012,03,22,11,06,3.80
2012,03,22,11,07,3.70
2012,03,22,11,08,3.60
2012,03,22,11,09,3.60
2012,03,22,11,10,3.60
2012,03,22,11,11,3.50
2012,03,22,11,12,3.50
2012,03,22,11,13,3.50
2012,03,22,11,14,3.50
2012,03,22,11,15,3.60
2012,03,22,11,16,3.70
2012,03,22,11,17,3.80
2012,03,22,11,18,3.80
2012,03,22,11,19,3.80
2012,03,22,11,20,3.80
2012,03,22,11,21,3.80
2012,03,22,11,22,3.80
2012,03,22,11,23,3.90
2012,03,22,11,24,3.90
2012,03,22,11,25,4.00
2012,03,22,11,26,4.00
2012,03,22,11,27,4.00
2012,03,22,11,28,4.10
2012,03,22,11,29,4.10
2012,03,22,11,30,4.20
2012,03,22,11,31,4.20
2012,03,22,11,32,4.30
2012,03,22,11,33,4.40
2012,03,22,11,34,4.40
2012,03,22,11,35,4.40
2012,03,22,11,36,4.40
2012,03,22,11,37,4.50
2012,03,22,11,38,4.60
2012,03,22,11,39,4.70
2012,03,22,11,40,4.70
2012,03,22,11,41,4.80
2012,03,22,11,42,4.90
2012,03,22,11,43,4.90
2012,03,22,11,44,4.80
2012,03,22,11,45,4.80
2012,03,22,11,46,4.80
2012,03,22,11,47,5.00
2012,03,22,11,48,5.10
2012,03,22,11,49,5.10
2012,03,22,11,50,5.10
2012,03,22,11,51,5.10
2012,03,22,11,52,5.20
2012,03,22,11,53,5.20
2012,03,22,11,54,5.30
2012,03,22,11,55,5.30
2012,03,22,11,56,5.30
2012,03,22,11,57,5.40
2012,03,22,11,58,5.50
2012,03,22,11,59,5.60
2012,03,22,12,00,5.80
2012,03,22,12,01,5.90
2012,03,22,12,02,5.90
2012,03,22,12,03,5.80
2012,03,22,12,04,5.70
2012,03,22,12,05,5.60
2012,03,22,12,06,5.50
2012,03,22,12,07,5.40
2012,03,22,12,08,5.30
2012,03,22,12,09,5.30
2012,03,22,12,10,5.30
2012,03,22,12,11,5.30
2012,03,22,12,12,5.30
2012,03,22,12,13,5.30
2012,03,22,12,14,5.30
2012,03,22,12,15,5.40
2012,03,22,12,16,5.40
2012,03,22,12,17,5.50
2012,03,22,12,18,5.60
2012,03,22,12,19,5.60
2012,03,22,12,20,5.50
2012,03,22,12,21,5.50
2012,03,22,12,22,5.60
2012,03,22,12,23,5.60
2012,03,22,12,24,5.50
2012,03,22,12,25,5.40
2012,03,22,12,26,5.30
2012,03,22,12,27,5.20
2012,03,22,12,28,5.20
2012,03,22,12,29,5.20
2012,03,22,12,30,5.40
2012,03,22,12,31,5.50
2012,03,22,12,32,5.60
2012,03,22,12,33,5.50
2012,03,22,12,34,5.50
2012,03,22,12,35,5.50
2012,03,22,12,36,5.50
2012,03,22,12,37,5.40
2012,03,22,12,38,5.30
2012,03,22,12,39,5.30
2012,03,22,12,40,5.30
2012,03,22,12,41,5.30
2012,03,22,12,42,5.20
2012,03,22,12,43,5.20
2012,03,22,12,44,5.10
2012,03,22,12,45,5.00
2012,03,22,12,46,5.10
2012,03,22,12,47,5.20
2012,03,22,12,48,5.40
2012,03,22,12,49,5.40
2012,03,22,12,50,5.40
2012,03,22,12,51,5.40
2012,03,22,12,52,5.40
2012,03,22,12,53,5.30
2012,03,22,12,54,5.30
2012,03,22,12,55,5.30
2012,03,22,12,56,5.30
2012,03,22,12,57,5.40
2012,03,22,12,58,5.50
2012,03,22,12,59,5.70
2012,03,22,13,00,5.60
2012,03,22,13,01,5.50
2012,03,22,13,02,5.50
2012,03,22,13,03,5.60
2012,03,22,13,04,5.60
2012,03,22,13,05,5.50
2012,03,22,13,06,5.40
2012,03,22,13,07,5.30
2012,03,22,13,08,5.30
2012,03,22,13,09,5.30
2012,03,22,13,10,5.40
2012,03,22,13,11,5.50
2012,03,22,13,12,5.60
2012,03,22,13,13,5.50
2012,03,22,13,14,5.50
2012,03,22,13,15,5.50
2012,03,22,13,16,5.60
2012,03,22,13,17,5.60
2012,03,22,13,18,5.80
2012,03,22,13,19,5.80
2012,03,22,13,20,5.70
2012,03,22,13,21,5.70
2012,03,22,13,22,5.70
2012,03,22,13,23,5.70
2012,03,22,13,24,5.80
2012,03,22,13,25,5.80
2012,03,22,13,26,5.70
2012,03,22,13,27,5.70
2012,03,22,13,28,5.70
2012,03,22,13,29,5.80
2012,03,22,13,30,5.90
2012,03,22,13,31,5.90
2012,03,22,13,32,5.80
2012,03,22,13,33,5.80
2012,03,22,13,34,5.70
2012,03,22,13,35,5.70
2012,03,22,13,36,5.60
2012,03,22,13,37,5.60
2012,03,22,13,38,5.60
2012,03,22,13,39,5.60
2012,03,22,13,40,5.60
2012,03,22,13,41,5.60
2012,03,22,13,42,5.60
2012,03,22,13,43,5.60
2012,03,22,13,44,5.60
2012,03,22,13,45,5.70
2012,03,22,13,46,5.70
2012,03,22,13,47,5.60
2012,03,22,13,48,5.70
2012,03,22,13,49,5.70
2012,03,22,13,50,5.70
2012,03,22,13,51,5.60
2012,03,22,13,52,5.60
2012,03,22,13,53,5.60
2012,03,22,13,54,5.70
2012,03,22,13,55,5.70
2012,03,22,13,56,5.80
2012,03,22,13,57,5.80
2012,03,22,13,58,5.80
2012,03,22,13,59,5.80
2012,03,22,14,00,5.80
2012,03,22,14,01,5.60
2012,03,22,14,02,5.50
2012,03,22,14,03,5.40
2012,03,22,14,04,5.40
2012,03,22,14,05,5.30
2012,03,22,14,06,5.30
2012,03,22,14,07,5.30
2012,03,22,14,08,5.30
2012,03,22,14,09,5.30
2012,03,22,14,10,5.30
2012,03,22,14,11,5.40
2012,03,22,14,12,5.40
2012,03,22,14,13,5.50
2012,03,22,14,14,5.60
2012,03,22,14,15,5.60
2012,03,22,14,16,5.60
2012,03,22,14,17,5.70
2012,03,22,14,18,5.70
2012,03,22,14,19,5.70
2012,03,22,14,20,5.70
2012,03,22,14,21,5.80
2012,03,22,14,22,5.90
2012,03,22,14,23,5.90
2012,03,22,14,24,6.00
2012,03,22,14,25,6.00
2012,03,22,14,26,6.10
2012,03,22,14,27,6.10
2012,03,22,14,28,6.10
2012,03,22,14,29,6.10
2012,03,22,14,30,6.10
2012,03,22,14,31,6.10
2012,03,22,14,32,6.10
2012,03,22,14,33,6.10
2012,03,22,14,34,6.10
2012,03,22,14,35,6.10
2012,03,22,14,36,6.10
2012,03,22,14,37,6.00
2012,03,22,14,38,6.00
2012,03,22,14,39,6.00
2012,03,22,14,40,6.10
2012,03,22,14,41,6.00
2012,03,22,14,42,6.00
2012,03,22,14,43,6.00
2012,03,22,14,44,6.10
2012,03,22,14,45,6.10
2012,03,22,14,46,6.10
2012,03,22,14,47,6.10
2012,03,22,14,48,6.10
2012,03,22,14,49,6.10
2012,03,22,14,50,6.10
2012,03,22,14,51,6.20
2012,03,22,14,52,6.20
2012,03,22,14,53,6.20
2012,03,22,14,54,6.20
2012,03,22,14,55,6.30
2012,03,22,14,56,6.30
2012,03,22,14,57,6.40
2012,03,22,14,58,6.40
2012,03,22,14,59,6.50
2012,03,22,15,00,6.50
2012,03,22,15,01,6.50
2012,03,22,15,02,6.50
2012,03,22,15,03,6.40
2012,03,22,15,04,6.30
2012,03,22,15,05,6.30
2012,03,22,15,06,6.30
2012,03,22,15,07,6.30
2012,03,22,15,08,6.20
2012,03,22,15,09,6.20
2012,03,22,15,10,6.20
2012,03,22,15,11,6.20
2012,03,22,15,12,6.30
2012,03,22,15,13,6.30
2012,03,22,15,14,6.30
2012,03,22,15,15,6.30
2012,03,22,15,16,6.30
2012,03,22,15,17,6.30
2012,03,22,15,18,6.30
2012,03,22,15,19,6.30
2012,03,22,15,20,6.30
2012,03,22,15,21,6.20
2012,03,22,15,22,5.90
2012,03,22,15,23,5.70
2012,03,22,15,24,5.60
2012,03,22,15,25,5.30
2012,03,22,15,26,5.00
2012,03,22,15,27,4.80
2012,03,22,15,28,4.60
2012,03,22,15,29,4.50
2012,03,22,15,30,4.40
2012,03,22,15,31,4.30
2012,03,22,15,32,4.30
2012,03,22,15,33,4.30
2012,03,22,15,34,4.30
2012,03,22,15,35,4.30
2012,03,22,15,36,4.30
2012,03,22,15,37,4.20
2012,03,22,15,38,4.20
2012,03,22,15,39,4.20
2012,03,22,15,40,4.20
2012,03,22,15,41,4.20
2012,03,22,15,42,4.20
2012,03,22,15,43,4.20
2012,03,22,15,44,4.20
2012,03,22,15,45,4.20
2012,03,22,15,46,4.20
2012,03,22,15,47,4.20
2012,03,22,15,48,4.20
2012,03,22,15,49,4.20
2012,03,22,15,50,4.30
2012,03,22,15,51,4.20
2012,03,22,15,52,4.20
2012,03,22,15,53,4.10
2012,03,22,15,54,4.10
2012,03,22,15,55,4.10
2012,03,22,15,56,4.10
2012,03,22,15,57,4.10
2012,03,22,15,58,4.10
2012,03,22,15,59,4.10
2012,03,22,16,00,4.10
2012,03,22,16,01,4.10
2012,03,22,16,02,4.00
2012,03,22,16,03,4.10
2012,03,22,16,04,4.10
2012,03,22,16,05,4.10
2012,03,22,16,06,4.10
2012,03,22,16,07,4.10
2012,03,22,16,08,4.10
2012,03,22,16,09,4.20
2012,03,22,16,10,4.20
2012,03,22,16,11,4.10
2012,03,22,16,12,4.10
2012,03,22,16,13,4.10
2012,03,22,16,14,4.10
2012,03,22,16,15,4.10
2012,03,22,16,16,4.10
2012,03,22,16,17,4.10
2012,03,22,16,18,4.10
2012,03,22,16,19,4.10
2012,03,22,16,20,4.10
2012,03,22,16,21,4.10
2012,03,22,16,22,4.10
2012,03,22,16,23,4.10
2012,03,22,16,24,4.10
2012,03,22,16,25,4.10
2012,03,22,16,26,4.20
2012,03,22,16,27,4.20
2012,03,22,16,28,4.20
2012,03,22,16,29,4.20
2012,03,22,16,30,4.20
2012,03,22,16,31,4.20
2012,03,22,16,32,4.20
2012,03,22,16,33,4.20
2012,03,22,16,34,4.20
2012,03,22,16,35,4.20
2012,03,22,16,36,4.20
2012,03,22,16,37,4.20
2012,03,22,16,38,4.20
2012,03,22,16,39,4.20
2012,03,22,16,40,4.20
2012,03,22,16,41,4.20
2012,03,22,16,42,4.20
2012,03,22,16,43,4.20
2012,03,22,16,44,4.20
2012,03,22,16,45,4.20
2012,03,22,16,46,4.30
2012,03,22,16,47,4.30
2012,03,22,16,48,4.30
2012,03,22,16,49,4.30
2012,03,22,16,50,4.30
2012,03,22,16,51,4.40
2012,03,22,16,52,4.40
2012,03,22,16,53,4.40
2012,03,22,16,54,4.40
2012,03,22,16,55,4.50
2012,03,22,16,56,4.50
2012,03,22,16,57,4.50
2012,03,22,16,58,4.50
2012,03,22,16,59,4.50
2012,03,22,17,00,4.60
2012,03,22,17,01,4.60
2012,03,22,17,02,4.70
2012,03,22,17,03,4.70
2012,03,22,17,04,4.70
2012,03,22,17,05,4.80
2012,03,22,17,06,4.80
2012,03,22,17,07,4.80
2012,03,22,17,08,4.80
2012,03,22,17,09,4.70
2012,03,22,17,10,4.70
2012,03,22,17,11,4.70
2012,03,22,17,12,4.70
2012,03,22,17,13,4.70
2012,03,22,17,14,4.70
2012,03,22,17,15,4.70
2012,03,22,17,16,4.70
2012,03,22,17,17,4.70
2012,03,22,17,18,4.70
2012,03,22,17,19,4.70
2012,03,22,17,20,4.70
2012,03,22,17,21,4.70
2012,03,22,17,22,4.70
2012,03,22,17,23,4.70
2012,03,22,17,24,4.70
2012,03,22,17,25,4.80
2012,03,22,17,26,4.80
2012,03,22,17,27,4.80
2012,03,22,17,28,4.90
2012,03,22,17,29,4.90
2012,03,22,17,30,4.90
2012,03,22,17,31,4.90
2012,03,22,17,32,4.90
2012,03,22,17,33,4.90
2012,03,22,17,34,4.90
2012,03,22,17,35,4.80
2012,03,22,17,36,4.80
2012,03,22,17,37,4.80
2012,03,22,17,38,4.90
2012,03,22,17,39,4.90
2012,03,22,17,40,4.80
2012,03,22,17,41,4.90
2012,03,22,17,42,4.90
2012,03,22,17,43,4.90
2012,03,22,17,44,4.90
2012,03,22,17,45,4.90
2012,03,22,17,46,4.90
2012,03,22,17,47,4.90
2012,03,22,17,48,4.90
2012,03,22,17,49,5.00
2012,03,22,17,50,5.00
2012,03,22,17,51,5.10
2012,03,22,17,52,5.10
2012,03,22,17,53,5.10
2012,03,22,17,54,5.10
2012,03,22,17,55,5.10
2012,03,22,17,56,5.10
2012,03,22,17,57,5.10
2012,03,22,17,58,5.00
2012,03,22,17,59,4.90
2012,03,22,18,00,4.90
2012,03,22,18,01,4.80
2012,03,22,18,02,4.80
2012,03,22,18,03,4.80
2012,03,22,18,04,4.70
2012,03,22,18,05,4.70
2012,03,22,18,06,4.70
2012,03,22,18,07,4.60
2012,03,22,18,08,4.60
2012,03,22,18,09,4.60
2012,03,22,18,10,4.60
2012,03,22,18,11,4.60
2012,03,22,18,12,4.60
2012,03,22,18,13,4.60
2012,03,22,18,14,4.60
2012,03,22,18,15,4.60
2012,03,22,18,16,4.60
2012,03,22,18,17,4.60
2012,03,22,18,18,4.60
2012,03,22,18,19,4.60
2012,03,22,18,20,4.70
2012,03,22,18,21,4.70
2012,03,22,18,22,4.70
2012,03,22,18,23,4.70
2012,03,22,18,24,4.70
2012,03,22,18,25,4.70
2012,03,22,18,26,4.70
2012,03,22,18,27,4.70
2012,03,22,18,28,4.60
2012,03,22,18,29,4.60
2012,03,22,18,30,4.60
2012,03,22,18,31,4.60
2012,03,22,18,32,4.60
2012,03,22,18,33,4.60
2012,03,22,18,34,4.60
2012,03,22,18,35,4.60
2012,03,22,18,36,4.60
2012,03,22,18,37,4.60
2012,03,22,18,38,4.60
2012,03,22,18,39,4.60
2012,03,22,18,40,4.60
2012,03,22,18,41,4.60
2012,03,22,18,42,4.60
2012,03,22,18,43,4.60
2012,03,22,18,44,4.50
2012,03,22,18,45,4.50
2012,03,22,18,46,4.50
2012,03,22,18,47,4.50
2012,03,22,18,48,4.50
2012,03,22,18,49,4.50
2012,03,22,18,50,4.50
2012,03,22,18,51,4.50
2012,03,22,18,52,4.50
2012,03,22,18,53,4.50
2012,03,22,18,54,4.50
2012,03,22,18,55,4.50
2012,03,22,18,56,4.40
2012,03,22,18,57,4.40
2012,03,22,18,58,4.40
2012,03,22,18,59,4.40
2012,03,22,19,00,4.40
2012,03,22,19,01,4.40
2012,03,22,19,02,4.40
2012,03,22,19,03,4.40
2012,03,22,19,04,4.40
2012,03,22,19,05,4.40
2012,03,22,19,06,4.40
2012,03,22,19,07,4.40
2012,03,22,19,08,4.40
2012,03,22,19,09,4.40
2012,03,22,19,10,4.40
2012,03,22,19,11,4.40
2012,03,22,19,12,4.40
2012,03,22,19,13,4.40
2012,03,22,19,14,4.40
2012,03,22,19,15,4.40
2012,03,22,19,16,4.40
2012,03,22,19,17,4.40
2012,03,22,19,18,4.40
2012,03,22,19,19,4.40
2012,03,22,19,20,4.30
2012,03,22,19,21,4.30
2012,03,22,19,22,4.30
2012,03,22,19,23,4.30
2012,03,22,19,24,4.30
2012,03,22,19,25,4.30
2012,03,22,19,26,4.30
2012,03,22,19,27,4.30
2012,03,22,19,28,4.30
2012,03,22,19,29,4.30
2012,03,22,19,30,4.30
2012,03,22,19,31,4.30
2012,03,22,19,32,4.30
2012,03,22,19,33,4.30
2012,03,22,19,34,4.30
2012,03,22,19,35,4.30
2012,03,22,19,36,4.30
2012,03,22,19,37,4.30
2012,03,22,19,38,4.40
2012,03,22,19,39,4.40
2012,03,22,19,40,4.40
2012,03,22,19,41,4.40
2012,03,22,19,42,4.40
2012,03,22,19,43,4.40
2012,03,22,19,44,4.40
2012,03,22,19,45,4.40
2012,03,22,19,46,4.40
2012,03,22,19,47,4.40
2012,03,22,19,48,4.40
2012,03,22,19,49,4.40
2012,03,22,19,50,4.40
2012,03,22,19,51,4.40
2012,03,22,19,52,4.40
2012,03,22,19,53,4.40
2012,03,22,19,54,4.40
2012,03,22,19,55,4.40
2012,03,22,19,56,4.40
2012,03,22,19,57,4.40
2012,03,22,19,58,4.40
2012,03,22,19,59,4.40
2012,03,22,20,00,4.40
2012,03,22,20,01,4.40
2012,03,22,20,02,4.40
2012,03,22,20,03,4.40
2012,03,22,20,04,4.40
2012,03,22,20,05,4.40
2012,03,22,20,06,4.40
2012,03,22,20,07,4.40
2012,03,22,20,08,4.40
2012,03,22,20,09,4.40
2012,03,22,20,10,4.40
2012,03,22,20,11,4.40
2012,03,22,20,12,4.50
2012,03,22,20,13,4.50
2012,03,22,20,14,4.50
2012,03,22,20,15,4.50
2012,03,22,20,16,4.60
2012,03,22,20,17,4.60
2012,03,22,20,18,4.60
2012,03,22,20,19,4.60
2012,03,22,20,20,4.60
2012,03,22,20,21,4.60
2012,03,22,20,22,4.60
2012,03,22,20,23,4.60
2012,03,22,20,24,4.60
2012,03,22,20,25,4.60
2012,03,22,20,26,4.60
2012,03,22,20,27,4.60
2012,03,22,20,28,4.60
2012,03,22,20,29,4.60
2012,03,22,20,30,4.50
2012,03,22,20,31,4.50
2012,03,22,20,32,4.50
2012,03,22,20,33,4.50
2012,03,22,20,34,4.50
2012,03,22,20,35,4.50
2012,03,22,20,36,4.50
2012,03,22,20,37,4.60
2012,03,22,20,38,4.60
2012,03,22,20,39,4.60
2012,03,22,20,40,4.60
2012,03,22,20,41,4.60
2012,03,22,20,42,4.60
2012,03,22,20,43,4.50
2012,03,22,20,44,4.60
2012,03,22,20,45,4.60
2012,03,22,20,46,4.60
2012,03,22,20,47,4.60
2012,03,22,20,48,4.60
2012,03,22,20,49,4.60
2012,03,22,20,50,4.60
2012,03,22,20,51,4.60
2012,03,22,20,52,4.60
2012,03,22,20,53,4.60
2012,03,22,20,54,4.60
2012,03,22,20,55,4.50
2012,03,22,20,56,4.50
2012,03,22,20,57,4.50
2012,03,22,20,58,4.40
2012,03,22,20,59,4.40
2012,03,22,21,00,4.40
2012,03,22,21,01,4.30
2012,03,22,21,02,4.30
2012,03,22,21,03,4.30
2012,03,22,21,04,4.30
2012,03,22,21,05,4.30
2012,03,22,21,06,4.20
2012,03,22,21,07,4.20
2012,03,22,21,08,4.20
2012,03,22,21,09,4.20
2012,03,22,21,10,4.20
2012,03,22,21,11,4.10
2012,03,22,21,12,4.10
2012,03,22,21,13,4.10
2012,03,22,21,14,4.10
2012,03,22,21,15,4.10
2012,03,22,21,16,4.10
2012,03,22,21,17,4.10
2012,03,22,21,18,4.10
2012,03,22,21,19,4.10
2012,03,22,21,20,4.10
2012,03,22,21,21,4.10
2012,03,22,21,22,4.20
2012,03,22,21,23,4.20
2012,03,22,21,24,4.20
2012,03,22,21,25,4.20
2012,03,22,21,26,4.20
2012,03,22,21,27,4.20
2012,03,22,21,28,4.20
2012,03,22,21,29,4.20
2012,03,22,21,30,4.20
2012,03,22,21,31,4.20
2012,03,22,21,32,4.20
2012,03,22,21,33,4.20
2012,03,22,21,34,4.20
2012,03,22,21,35,4.20
2012,03,22,21,36,4.30
2012,03,22,21,37,4.30
2012,03,22,21,38,4.30
2012,03,22,21,39,4.30
2012,03,22,21,40,4.40
2012,03,22,21,41,4.40
2012,03,22,21,42,4.50
2012,03,22,21,43,4.50
2012,03,22,21,44,4.60
2012,03,22,21,45,4.70
2012,03,22,21,46,4.80
2012,03,22,21,47,4.90
2012,03,22,21,48,4.90
2012,03,22,21,49,4.90
2012,03,22,21,50,4.90
2012,03,22,21,51,4.90
2012,03,22,21,52,4.80
2012,03,22,21,53,4.80
2012,03,22,21,54,4.70
2012,03,22,21,55,4.70
2012,03,22,21,56,4.50
2012,03,22,21,57,4.40
2012,03,22,21,58,4.30
2012,03,22,21,59,4.20
2012,03,22,22,00,4.10
2012,03,22,22,01,4.00
2012,03,22,22,02,3.90
2012,03,22,22,03,3.90
2012,03,22,22,04,3.80
2012,03,22,22,05,3.70
2012,03,22,22,06,3.70
2012,03,22,22,07,3.60
2012,03,22,22,08,3.60
2012,03,22,22,09,3.60
2012,03,22,22,10,3.50
2012,03,22,22,11,3.50
2012,03,22,22,12,3.50
2012,03,22,22,13,3.50
2012,03,22,22,14,3.60
2012,03,22,22,15,3.60
2012,03,22,22,16,3.60
2012,03,22,22,17,3.60
2012,03,22,22,18,3.60
2012,03,22,22,19,3.60
2012,03,22,22,20,3.60
2012,03,22,22,21,3.60
2012,03,22,22,22,3.60
2012,03,22,22,23,3.60
2012,03,22,22,24,3.60
2012,03,22,22,25,3.60
2012,03,22,22,26,3.60
2012,03,22,22,27,3.60
2012,03,22,22,28,3.60
2012,03,22,22,29,3.60
2012,03,22,22,30,3.60
2012,03,22,22,31,3.60
2012,03,22,22,32,3.60
2012,03,22,22,33,3.70
2012,03,22,22,34,3.70
2012,03,22,22,35,3.70
2012,03,22,22,36,3.80
2012,03,22,22,37,3.80
2012,03,22,22,38,4.00
2012,03,22,22,39,4.10
2012,03,22,22,40,4.20
2012,03,22,22,41,4.20
2012,03,22,22,42,4.30
2012,03,22,22,43,4.30
2012,03,22,22,44,4.40
2012,03,22,22,45,4.40
2012,03,22,22,46,4.40
2012,03,22,22,47,4.40
2012,03,22,22,48,4.50
2012,03,22,22,49,4.50
2012,03,22,22,50,4.50
2012,03,22,22,51,4.60
2012,03,22,22,52,4.60
2012,03,22,22,53,4.60
2012,03,22,22,54,4.60
2012,03,22,22,55,4.60
2012,03,22,22,56,4.60
2012,03,22,22,57,4.60
2012,03,22,22,58,4.60
2012,03,22,22,59,4.60
2012,03,22,23,00,4.60
2012,03,22,23,01,4.60
2012,03,22,23,02,4.70
2012,03,22,23,03,4.70
2012,03,22,23,04,4.70
2012,03,22,23,05,4.70
2012,03,22,23,06,4.70
2012,03,22,23,07,4.60
2012,03,22,23,08,4.60
2012,03,22,23,09,4.60
2012,03,22,23,10,4.60
2012,03,22,23,11,4.50
2012,03,22,23,12,4.50
2012,03,22,23,13,4.40
2012,03,22,23,14,4.40
2012,03,22,23,15,4.40
2012,03,22,23,16,4.30
2012,03,22,23,17,4.30
2012,03,22,23,18,4.30
2012,03,22,23,19,4.20
2012,03,22,23,20,4.20
2012,03,22,23,21,4.20
2012,03,22,23,22,4.20
2012,03,22,23,23,4.20
2012,03,22,23,24,4.20
2012,03,22,23,25,4.20
2012,03,22,23,26,4.30
2012,03,22,23,27,4.40
2012,03,22,23,28,4.50